Vertical_Velocity
-9 -8 -8 -6 -5 -4 -2 -2 -1 -1 -1 -1 -1 -1 -1 -1 -2 -2 -3 -3 -3 -3 -4 -4 -3 -2 -2 -1 -1 -1 -1 -1 -2 -2 -1 2 4 3 2 0 -1 -3 -5 -5 -4 -2 -0 1 2 4 4 3 2 2 2 1 0 -0 -0 -0 0 0 -0 -1 -0 0 1 2 3 2 -0 -1 -1 -1 -0 0 1 2 3 2 1 1 0 -0 -1 -1 -1 -1 -0 -0 -0 -1 -1 0 5 2 1 1 0 1 1 1 1
-9 -9 -10 -10 -10 -9 -8 -6 -5 -4 -2 -2 -1 -1 -1 -1 -1 -2 -2 -2 -2 -2 -3 -3 -3 -3 -3 -2 -2 -2 -2 -2 -2 -1 0 4 4 4 1 -0 -3 -4 -6 -5 -4 -3 -1 0 1 3 4 3 2 1 1 -0 -1 -1 -1 -0 -0 -0 -0 -1 -1 -0 0 1 1 1 -1 -1 -1 -2 -1 -0 2 5 8 6 3 1 0 -0 -0 -1 -1 -1 -1 -0 -0 -0 -1 -1 -0 -1 2 5 5 1 1 1 1
-7 -7 -8 -9 -9 -10 -10 -10 -9 -8 -7 -5 -4 -3 -3 -2 -2 -2 -2 -2 -2 -2 -2 -2 -2 -2 -3 -3 -3 -3 -3 -2 -2 -0 3 5 4 2 -0 -2 -3 -4 -5 -5 -4 -3 -2 -0 0 2 3 3 2 1 0 -1 -1 0 1 1 1 1 0 -0 -0 -0 -0 0 0 -0 -1 -1 -1 0 -0 -0 3 8 13 9 6 4 2 -0 -1 -1 -1 -1 -1 -0 -0 -0 -0 -1 -1 -2 1 5 8 2 1 1 1
-5 -5 -5 -6 -6 -7 -8 -8 -8 -8 -8 -8 -7 -6 -5 -5 -4 -4 -3 -2 -2 -1 -1 -1 -1 -1 -2 -3 -4 -4 -4 -3 -2 1 5 4 2 -0 -2 -2 -3 -3 -3 -4 -3 -2 -1 -1 0 1 3 3 2 1 0 0 1 2 2 2 2 2 2 1 1 1 1 0 -0 -1 -2 -2 -1 1 4 2 4 9 11 6 4 5 5 2 0 -1 -1 -1 -1 -1 -0 -0 -0 -1 -1 -1 -1 1 3 1 0 1 1
-4 -4 -4 -4 -4 -4 -5 -6 -6 -6 -6 -6 -7 -7 -7 -7 -7 -6 -6 -5 -4 -3 -2 -1 -0 -0 -1 -2 -3 -4 -5 -4 -1 2 6 3 0 -2 -2 -2 -2 -2 -2 -2 -2 -2 -1 -1 0 2 2 2 2 1 1 1 1 1 0 1 1 2 3 3 3 2 3 1 0 -1 -2 -2 -1 2 5 5 8 11 12 5 2 2 5 6 5 3 -1 -2 -2 -1 -1 -0 -0 -0 -1 -1 -1 -1 -1 -1 -0 0 1
-3 -3 -3 -3 -3 -3 -3 -4 -4 -4 -4 -5 -5 -6 -6 -6 -7 -7 -8 -7 -7 -5 -4 -2 -1 -1 -1 -1 -2 -2 -4 -4 -1 2 5 1 -2 -4 -2 -2 -2 -2 -2 -2 -1 -0 -0 -0 1 2 2 1 0 0 1 1 0 -1 -2 -1 -0 1 3 3 2 2 1 -0 -1 -1 -1 -2 -2 -0 3 5 9 12 13 7 4 2 2 2 2 3 3 -1 -2 -2 -1 -1 -0 -0 -1 -1 -2 -2 -2 -1 -0 0 0
-4 -4 -4 -4 -3 -3 -3 -3 -4 -4 -4 -4 -4 -4 -5 -5 -5 -6 -7 -8 -8 -8 -7 -5 -4 -2 -1 -1 -1 -1 -2 -2 0 2 2 -2 -4 -5 -3 -2 -2 -2 -2 -1 -0 1 0 -0 1 2 1 -0 -0 -0 0 1 1 -0 -1 -1 0 2 2 2 1 0 -0 -0 -0 -1 -1 -2 -2 -1 2 4 8 11 11 7 4 3 2 1 -0 1 6 2 -1 -2 -2 -3 -2 -1 -0 -1 0 1 -0 -1 -1 -0 -0
-5 -5 -5 -4 -4 -4 -4 -4 -4 -4 -4 -4 -4 -4 -4 -4 -4 -5 -6 -6 -7 -8 -8 -7 -7 -5 -4 -2 -1 -1 -0 0 1 2 -0 -4 -5 -5 -3 -2 -2 -2 -2 -1 1 2 1 0 1 1 0 -0 -0 -0 0 1 1 1 0 1 1 2 1 0 1 1 1 0 -0 -1 -2 -2 -1 2 4 5 7 8 7 6 4 3 1 0 -0 1 4 4 4 2 -2 -0 2 4 5 1 3 6 6 3 1 -0 -0
-5 -5 -5 -4 -4 -4 -4 -4 -4 -4 -4 -4 -4 -4 -4 -4 -4 -4 -4 -5 -6 -6 -7 -7 -7 -7 -6 -5 -3 -1 0 2 2 1 -1 -3 -5 -4 -3 -3 -2 -2 -1 0 2 2 1 0 1 1 -0 0 -0 -0 -0 0 1 2 2 2 2 1 -0 -0 1 1 1 1 -0 -1 -1 -1 0 1 2 4 6 6 7 7 6 4 1 1 0 -0 -0 1 4 7 5 8 8 8 6 1 1 3 3 4 5 4 1
-4 -4 -4 -4 -4 -4 -4 -4 -4 -4 -4 -4 -4 -4 -4 -4 -4 -4 -4 -5 -5 -6 -6 -6 -7 -7 -8 -7 -5 -4 -1 1 2 1 0 -1 -3 -4 -4 -4 -3 -2 -1 1 2 2 1 1 1 1 0 0 -0 -0 -0 0 1 2 2 3 2 1 -0 -0 -0 0 1 1 1 1 1 1 0 -0 -0 3 5 5 6 8 7 5 2 2 1 0 -1 -1 2 4 4 7 5 2 -1 -1 -1 -1 -1 0 4 7 7
-3 -3 -3 -3 -3 -3 -3 -3 -4 -4 -4 -4 -3 -4 -4 -4 -4 -4 -5 -5 -5 -5 -5 -5 -6 -7 -7 -7 -6 -5 -3 -1 0 1 1 0 -1 -3 -4 -4 -4 -2 -1 1 2 2 1 1 1 1 1 0 -0 -0 -1 -0 1 2 3 4 3 1 -1 -1 -1 -1 0 1 2 2 1 0 -1 -1 -0 2 4 4 4 5 6 5 3 2 1 1 0 1 2 2 2 4 4 1 -2 -3 -3 -2 -1 -0 1 3 6
-1 -2 -2 -2 -2 -3 -3 -3 -3 -3 -4 -4 -4 -4 -4 -4 -4 -5 -5 -5 -5 -4 -4 -4 -5 -6 -6 -7 -6 -6 -5 -4 -2 -1 1 1 0 -1 -3 -4 -4 -3 -2 -0 1 1 1 1 1 1 2 0 0 0 -1 0 1 2 3 4 3 1 -1 -1 -1 -1 -0 -0 0 0 -0 -1 -1 -1 -0 1 3 3 2 3 3 3 3 3 2 1 1 2 1 1 2 2 4 5 3 -2 -3 -2 -2 -1 -0 1 2
-1 -2 -2 -2 -3 -3 -3 -3 -4 -4 -4 -4 -4 -4 -4 -4 -4 -5 -6 -6 -6 -5 -4 -4 -4 -5 -5 -6 -6 -6 -5 -4 -4 -3 -1 -0 0 -0 -1 -3 -3 -3 -2 -1 -1 0 1 1 1 2 2 1 1 1 -1 0 1 2 4 4 2 1 -1 -0 -0 -1 -2 -2 -2 -2 -1 -1 -0 0 0 1 1 1 0 4 4 3 3 3 2 1 2 1 1 1 2 3 4 5 5 3 1 -1 -2 -2 -1 -0 1
-3 -3 -3 -3 -4 -4 -4 -4 -4 -4 -4 -5 -5 -4 -4 -4 -4 -5 -6 -7 -6 -6 -5 -5 -4 -4 -5 -5 -5 -5 -4 -5 -5 -4 -3 -2 -1 -0 -0 -1 -2 -2 -3 -3 -2 -1 -0 1 1 2 2 1 1 1 0 0 1 2 4 3 2 1 0 1 0 -0 -1 -2 -2 -2 -2 -1 -0 1 2 1 0 0 1 5 5 4 3 3 2 1 1 0 0 1 1 3 3 3 1 3 5 5 1 -1 -2 -1 0
-4 -5 -5 -5 -5 -4 -4 -4 -4 -4 -4 -5 -5 -5 -4 -4 -4 -5 -6 -7 -7 -6 -6 -5 -5 -5 -5 -5 -4 -4 -3 -4 -4 -5 -4 -4 -3 -2 -1 -1 -1 -1 -2 -3 -3 -3 -2 -0 1 2 1 2 1 1 2 1 2 3 4 2 1 1 1 1 1 -0 -1 -2 -3 -3 -2 -1 0 1 2 1 0 0 2 4 4 4 4 2 1 -0 0 -0 -0 -0 0 1 1 0 -1 1 4 7 7 2 -1 -3 -1
-5 -5 -5 -5 -5 -5 -5 -4 -4 -4 -4 -4 -4 -4 -4 -4 -4 -4 -5 -6 -6 -6 -6 -6 -6 -6 -5 -5 -5 -4 -3 -3 -4 -4 -4 -4 -4 -4 -2 -1 -1 -0 -1 -2 -3 -4 -3 -2 -0 1 1 2 2 2 2 1 2 3 3 2 1 1 2 1 -0 -1 -2 -2 -2 -2 -1 0 0 0 1 1 1 1 3 3 3 4 6 3 1 -0 1 -0 -0 0 1 1 0 -1 -0 3 5 7 7 5 1 -1 -1
-4 -5 -5 -5 -5 -5 -5 -5 -4 -4 -4 -4 -4 -4 -4 -3 -3 -3 -4 -4 -5 -6 -6 -6 -6 -6 -6 -6 -5 -5 -4 -3 -3 -3 -3 -4 -4 -4 -4 -3 -2 -1 -0 -1 -2 -3 -4 -3 -2 -0 1 2 2 2 2 2 3 3 3 1 1 1 2 1 -0 -0 -0 0 0 0 0 0 0 0 -0 0 1 2 3 3 3 4 5 4 3 2 3 1 1 2 4 4 1 -1 -1 5 6 5 2 5 5 4 3
-4 -4 -4 -5 -5 -5 -5 -5 -5 -5 -5 -4 -4 -4 -3 -3 -3 -2 -2 -2 -3 -4 -6 -6 -6 -6 -6 -6 -6 -5 -5 -4 -4 -3 -2 -2 -3 -4 -4 -4 -2 -2 -1 -1 -1 -2 -4 -4 -4 -2 0 1 2 2 2 3 4 4 3 2 1 2 2 1 1 1 1 1 1 0 -0 -0 0 0 -0 0 1 2 2 3 4 4 4 4 3 3 2 2 1 1 3 5 4 1 -1 1 4 5 2 5 7 7 7
-4 -4 -4 -4 -5 -5 -5 -5 -5 -5 -5 -5 -5 -4 -3 -3 -3 -3 -2 -1 -2 -2 -4 -5 -5 -5 -5 -5 -6 -6 -5 -5 -5 -4 -2 -2 -2 -3 -4 -4 -3 -2 -2 -1 -1 -1 -3 -4 -5 -4 -2 -0 1 2 2 3 4 5 3 2 2 2 2 1 2 2 1 0 1 1 1 1 1 -0 -1 -0 0 1 1 2 3 4 3 3 2 1 1 2 2 1 1 3 4 4 1 -0 2 5 6 6 6 5 5
-5 -5 -4 -4 -4 -5 -5 -4 -4 -5 -5 -5 -5 -5 -4 -3 -3 -4 -3 -2 -1 -1 -2 -3 -4 -4 -4 -4 -5 -5 -5 -5 -5 -5 -4 -3 -2 -2 -3 -3 -3 -3 -2 -1 -1 -1 -2 -3 -4 -5 -4 -2 -0 1 1 3 4 5 3 2 2 2 2 2 2 2 1 1 1 2 2 2 0 -1 -2 -1 -1 -0 0 1 3 4 3 2 1 1 1 2 2 2 2 1 3 5 4 1 1 2 5 6 6 3 0
-5 -5 -5 -4 -4 -4 -4 -4 -4 -4 -4 -4 -5 -6 -4 -3 -4 -4 -3 -2 -2 -1 -0 -1 -2 -2 -2 -2 -3 -4 -4 -5 -6 -6 -4 -4 -3 -3 -3 -3 -3 -3 -3 -1 -1 -2 -1 -2 -4 -6 -6 -4 -2 0 2 3 4 4 3 2 2 2 2 2 2 2 1 1 1 1 1 -0 -1 -2 -2 -1 -1 -0 -0 1 2 2 2 2 2 2 2 2 2 2 2 1 1 2 4 2 0 -0 2 5 6 4 1
-5 -5 -4 -4 -4 -5 -4 -4 -4 -4 -3 -3 -5 -7 -4 -3 -4 -5 -3 -3 -3 -2 -1 -1 -1 -1 -0 -1 -1 -2 -2 -3 -5 -6 -4 -3 -3 -3 -3 -3 -3 -3 -3 -2 -2 -2 0 -1 -3 -5 -6 -6 -4 -2 1 3 3 3 3 2 2 2 2 2 2 2 2 1 0 0 0 -1 -1 -2 -1 -0 -0 -0 0 1 1 1 2 3 3 3 3 3 3 3 3 2 0 -0 1 1 -0 -1 -0 4 5 5 6
-3 -4 -3 -3 -5 -5 -3 -4 -4 -4 -3 -2 -5 -6 -4 -2 -4 -6 -4 -3 -4 -4 -3 -3 -2 -1 0 -1 -1 -0 1 -2 -4 -6 -4 -3 -3 -3 -2 -2 -3 -3 -3 -2 -2 -2 0 -0 -1 -3 -5 -6 -6 -4 -1 2 3 3 2 2 2 2 2 2 2 2 2 1 1 1 1 0 -0 -0 -0 -0 -0 0 1 1 2 3 4 4 4 4 3 3 3 4 2 2 1 -0 -1 -0 0 0 -1 1 2 4 7
-2 -4 -2 -2 -4 -5 -2 -4 -4 -3 -2 -2 -4 -5 -4 -2 -4 -6 -5 -3 -4 -5 -4 -4 -4 -3 -1 -2 -1 1 2 -1 -3 -4 -4 -4 -4 -3 -2 -2 -2 -3 -3 -2 -2 -2 -0 -0 -1 -2 -4 -6 -7 -6 -4 1 3 3 1 1 2 2 2 2 2 2 2 1 1 1 1 -0 0 0 0 0 0 1 2 2 3 3 4 4 4 4 3 2 2 3 2 2 2 1 -1 0 3 4 2 0 -1 1 6
-2 -3 -2 -2 -4 -5 -2 -4 -5 -4 -2 -2 -3 -4 -4 -2 -3 -5 -6 -4 -4 -5 -5 -5 -4 -4 -4 -4 -2 0 1 -0 -1 -2 -2 -4 -5 -4 -2 -1 -2 -2 -3 -3 -2 -2 -1 -1 -0 -1 -2 -4 -6 -7 -6 -1 1 3 2 1 1 1 2 2 2 2 2 2 2 1 0 -0 0 1 1 1 2 2 2 2 3 3 3 3 4 4 4 3 2 2 3 3 3 2 -0 1 2 4 5 3 1 0 4
-3 -3 -2 -2 -3 -4 -2 -3 -4 -4 -3 -2 -3 -4 -4 -2 -2 -4 -5 -4 -4 -5 -6 -4 -4 -5 -5 -5 -3 -1 -1 -1 -1 -0 -1 -3 -4 -4 -3 -2 -2 -2 -3 -3 -2 -1 -2 -1 -0 -0 -1 -2 -5 -7 -8 -3 0 2 2 1 1 1 1 2 2 2 2 2 1 1 0 0 1 1 1 1 1 1 2 2 3 3 3 3 4 4 5 5 4 3 4 4 3 2 2 1 1 2 5 3 2 2 3
-4 -3 -3 -3 -2 -2 -3 -2 -3 -3 -3 -2 -2 -4 -4 -3 -2 -2 -4 -3 -3 -4 -6 -4 -4 -4 -5 -5 -4 -3 -2 -2 -2 -1 0 -2 -3 -3 -3 -3 -2 -1 -3 -3 -3 -2 -2 -1 -1 -1 -1 -1 -4 -7 -8 -5 -2 1 2 1 1 0 1 1 2 2 2 2 1 1 1 1 1 1 0 0 1 1 2 2 2 3 3 3 3 4 4 4 3 3 3 3 2 2 3 2 1 1 4 3 3 4 4
-3 -4 -4 -4 -3 -2 -4 -2 -2 -2 -2 -1 -2 -2 -2 -4 -4 -2 -2 -3 -3 -4 -5 -4 -4 -4 -5 -4 -4 -4 -3 -3 -3 -2 -1 -1 -2 -2 -3 -3 -2 -1 -2 -2 -2 -3 -2 -1 -1 -1 -1 -2 -4 -5 -6 -6 -4 -1 1 2 1 0 -0 0 1 2 2 2 1 1 1 1 1 0 0 1 1 2 2 1 1 1 1 1 1 2 1 1 0 0 1 1 2 3 3 3 2 1 0 2 3 4 3
-2 -2 -5 -4 -4 -4 -5 -3 -3 -2 -2 -1 -2 -1 0 -3 -5 -4 -1 -2 -3 -4 -4 -4 -4 -4 -5 -4 -4 -4 -4 -4 -4 -4 -1 -2 -1 -1 -1 -3 -3 -2 -1 -2 -2 -2 -1 -0 -1 -1 -1 -2 -3 -4 -4 -6 -5 -2 0 1 1 0 -1 -0 0 1 1 2 2 1 1 1 1 1 1 1 1 1 -0 -1 -2 -2 -1 -1 0 1 1 -0 -0 -0 0 0 2 3 4 4 3 2 1 2 4 4 4
-2 -1 -4 -4 -4 -4 -6 -5 -4 -3 -2 -2 -2 -1 0 -2 -4 -4 -2 -3 -3 -4 -3 -4 -4 -4 -4 -4 -4 -4 -4 -4 -5 -5 -2 -2 -2 -1 -1 -3 -2 -2 -2 -2 -2 -1 -1 -1 -1 -1 -1 -2 -2 -3 -4 -5 -5 -4 -1 0 1 1 -0 -1 -1 0 1 1 1 2 2 2 1 1 1 1 0 -0 -1 -2 -2 -2 -1 0 1 1 1 0 0 0 0 0 1 2 4 3 3 3 3 4 4 4 4
-4 -2 -2 -4 -3 -3 -4 -5 -5 -3 -3 -4 -3 -1 -1 -2 -3 -3 -2 -4 -4 -4 -3 -4 -4 -4 -4 -3 -3 -3 -3 -4 -6 -5 -2 -2 -2 -2 -1 -2 -2 -2 -3 -2 -1 -1 -2 -1 -1 -0 -1 -1 -2 -3 -4 -4 -4 -4 -3 -1 0 1 0 -1 -1 -1 0 1 1 2 2 2 1 1 1 1 0 0 -0 -0 -0 0 1 1 2 1 1 1 1 1 1 1 1 2 3 3 3 3 3 4 4 4 5
-5 -4 -3 -3 -3 -3 -3 -4 -4 -4 -3 -4 -3 -2 -1 -2 -3 -3 -2 -3 -4 -4 -4 -5 -5 -4 -4 -3 -3 -2 -2 -5 -5 -5 -2 -2 -3 -2 -1 -1 -2 -3 -2 -2 -2 -2 -2 -1 -1 -0 -0 -2 -3 -4 -3 -2 -3 -4 -4 -2 -1 0 1 -0 -1 -1 -0 1 2 2 2 2 1 1 1 1 1 0 -0 -0 -0 -0 0 0 1 1 1 1 2 2 2 2 1 1 1 3 4 4 3 3 3 4 4
-5 -4 -4 -4 -4 -4 -3 -4 -4 -4 -3 -3 -3 -3 -2 -3 -3 -3 -3 -3 -3 -3 -4 -5 -5 -5 -5 -5 -3 -2 -2 -4 -4 -4 -4 -3 -3 -3 -1 -1 -2 -2 -0 -3 -4 -3 -0 -1 -1 -1 0 -2 -3 -3 -2 -2 -3 -3 -4 -4 -2 -0 1 0 -0 -1 -0 1 1 2 2 2 1 1 1 1 -0 -1 -2 -3 -3 -3 -2 -2 -0 0 1 1 2 2 2 2 1 1 0 1 1 2 3 3 3 3 3
-6 -5 -4 -4 -3 -3 -4 -4 -4 -3 -3 -2 -3 -3 -3 -3 -3 -3 -3 -3 -2 -2 -2 -4 -5 -5 -5 -5 -4 -3 -2 -3 -4 -4 -5 -4 -3 -3 -2 -4 -3 -1 0 -3 -4 -2 0 -1 -2 -1 1 -2 -3 -3 -3 -3 -2 -3 -4 -4 -4 -2 0 1 1 -0 -1 0 1 1 1 1 1 0 0 -1 -2 -3 -3 -4 -4 -4 -3 -2 -0 0 1 1 1 2 2 2 2 2 1 1 1 2 2 3 3 3 3
-5 -5 -5 -4 -4 -3 -3 -4 -4 -3 -3 -2 -2 -3 -3 -4 -4 -4 -3 -3 -2 -1 -1 -2 -3 -4 -4 -4 -4 -4 -3 -3 -4 -4 -4 -4 -3 -3 -4 -5 -3 -1 -1 -3 -3 -1 -1 -3 -2 -1 1 -2 -3 -3 -2 -2 -2 -2 -3 -4 -4 -3 -0 1 1 1 -0 -1 -0 -0 0 -0 -0 -0 -1 -1 -1 -1 -1 -1 -0 -0 0 2 2 2 2 2 2 1 2 2 2 1 1 1 1 1 2 3 3 3 3
-4 -4 -5 -4 -4 -4 -3 -3 -3 -3 -3 -2 -2 -3 -3 -3 -4 -4 -4 -3 -2 -1 -0 -0 -1 -2 -2 -4 -4 -3 -3 -3 -3 -4 -3 -3 -3 -4 -5 -4 -3 -1 -3 -4 -2 -1 -1 -3 -2 -0 -0 -3 -3 -2 -2 -2 -2 -2 -4 -4 -4 -4 -2 1 2 1 -0 -1 -2 -1 -1 -1 -1 -0 -0 -0 0 1 1 2 2 3 4 4 5 4 3 2 1 1 0 0 1 0 0 0 1 1 2 2 3 4 4
-4 -3 -3 -4 -4 -4 -4 -3 -3 -3 -2 -2 -2 -3 -3 -3 -4 -4 -4 -3 -3 -2 -1 -0 0 -0 -1 -3 -3 -2 -2 -3 -3 -3 -1 -2 -3 -4 -5 -3 -2 -2 -5 -4 -2 -1 -2 -2 -0 1 -1 -3 -3 -3 -3 -2 -2 -3 -4 -3 -4 -4 -3 -0 1 2 0 -1 -2 -2 -2 -1 -0 0 1 1 1 1 1 2 2 2 3 3 3 3 2 2 1 0 -0 -0 -0 0 -0 1 1 1 2 2 3 4 4
-4 -4 -3 -3 -3 -3 -4 -3 -3 -2 -2 -2 -2 -2 -3 -3 -3 -4 -4 -4 -3 -3 -2 -1 -0 0 0 -1 -2 -2 -3 -4 -4 -3 -1 -2 -3 -4 -3 -2 -2 -3 -4 -2 -1 -2 -4 -1 1 1 -2 -3 -4 -4 -2 -2 -3 -4 -2 -3 -3 -4 -3 -1 0 1 1 -1 -3 -3 -2 -1 0 1 1 1 1 1 1 1 1 1 0 0 1 2 3 2 2 1 0 -0 -0 0 1 2 3 3 3 3 3 4 4
-4 -4 -3 -3 -3 -3 -3 -3 -3 -2 -2 -2 -2 -2 -3 -4 -4 -4 -4 -3 -3 -2 -3 -3 -2 -0 1 -0 -1 -2 -2 -3 -4 -4 -2 -3 -4 -3 -1 -2 -3 -3 -3 -1 -2 -2 -3 1 2 1 -3 -4 -4 -3 -0 -2 -4 -3 -2 -3 -3 -3 -3 -2 -1 0 -0 -1 -2 -3 -2 -1 0 1 1 1 1 0 0 0 0 -0 -1 -0 1 2 3 4 3 2 1 0 0 1 2 3 4 4 3 3 3 4 4
-4 -4 -4 -3 -3 -3 -3 -3 -3 -3 -2 -2 -2 -2 -2 -3 -4 -4 -3 -3 -2 -2 -2 -3 -3 -2 0 1 -0 -1 -1 -2 -3 -4 -4 -4 -4 -3 -1 -2 -3 -3 -2 -1 -2 -2 -0 2 2 -0 -3 -4 -3 -2 -2 -4 -4 -3 -2 -2 -2 -2 -3 -4 -3 -2 -1 -1 -1 -1 -1 -0 0 1 1 0 0 0 -0 -0 -0 0 0 1 2 3 4 4 4 3 2 1 2 2 3 3 3 2 2 2 3 3 4
-4 -3 -3 -3 -3 -3 -3 -3 -3 -3 -2 -2 -1 -2 -2 -2 -3 -4 -4 -3 -1 -1 -0 -2 -4 -4 -3 -1 0 -0 -1 -1 -3 -4 -4 -4 -3 -3 -2 -2 -2 -2 -2 -2 -2 -1 1 2 1 -1 -3 -2 -2 -3 -5 -4 -3 -2 -2 -2 -2 -3 -3 -4 -4 -3 -2 -1 -0 -0 -0 -0 0 0 0 0 -0 -0 -0 -0 0 1 2 2 3 4 4 4 4 3 3 3 3 3 2 2 1 0 0 1 2 3 4
-5 -4 -3 -3 -3 -3 -2 -3 -3 -3 -2 -2 -1 -1 -1 -2 -3 -4 -4 -3 -2 -1 1 -0 -2 -4 -5 -3 -1 -0 -1 -2 -2 -3 -4 -4 -3 -2 -2 -2 -2 -2 -2 -2 -2 -0 2 2 0 -1 -3 -2 -3 -5 -6 -3 -1 -1 -2 -3 -3 -3 -3 -4 -5 -4 -3 -1 -0 0 0 -0 -0 -1 -1 -0 -0 -0 0 0 1 1 2 2 3 3 3 3 3 3 3 3 3 2 1 -0 -1 -1 0 1 1 2 3
-4 -4 -4 -3 -3 -2 -2 -3 -3 -3 -2 -2 -1 -1 -1 -2 -3 -3 -4 -4 -3 -1 0 0 -1 -3 -4 -4 -2 -1 -1 -2 -2 -3 -4 -4 -4 -2 -1 -2 -2 -2 -2 -2 -1 0 3 2 -0 -2 -3 -3 -4 -5 -3 -1 -1 -2 -3 -4 -3 -2 -3 -4 -4 -4 -4 -2 -0 1 1 -0 -1 -1 -1 -1 -1 -0 0 0 0 1 1 1 1 1 0 0 1 2 3 3 2 1 0 -0 0 1 2 2 1 1 1
-4 -3 -3 -3 -2 -2 -2 -2 -3 -3 -2 -2 -1 -1 -1 -2 -2 -3 -3 -3 -3 -2 -1 0 -0 -1 -3 -3 -3 -3 -2 -3 -3 -3 -3 -4 -3 -2 -1 -1 -2 -2 -2 -2 -0 2 3 1 -1 -2 -3 -5 -5 -4 -1 0 -1 -2 -4 -3 -3 -3 -4 -4 -4 -4 -4 -2 -1 1 1 -1 -2 -2 -2 -1 -1 -0 0 0 -0 -0 -1 -1 -1 -1 -1 -1 0 1 2 1 1 0 0 0 1 3 4 3 2 0 -0
-4 -3 -2 -2 -2 -1 -1 -1 -2 -2 -2 -2 -1 -1 -0 -1 -2 -2 -2 -3 -2 -2 -2 -1 -0 0 -1 -2 -3 -4 -3 -4 -4 -4 -3 -3 -3 -2 -2 -2 -2 -2 -2 -1 1 3 3 0 -1 -3 -4 -5 -4 -2 -0 -0 -1 -2 -2 -4 -4 -4 -4 -3 -3 -4 -4 -3 -1 0 1 -1 -2 -2 -2 -1 -0 -0 0 -0 -1 -1 -2 -2 -2 -2 -1 -0 1 2 2 1 1 1 1 1 1 2 3 3 2 0 -1
-4 -4 -3 -2 -2 -1 -1 -1 -1 -2 -2 -1 -1 -0 -0 -0 -1 -2 -2 -2 -2 -1 -2 -2 -1 0 1 -0 -2 -3 -4 -4 -4 -4 -4 -4 -4 -3 -2 -2 -2 -2 -2 -0 2 3 2 0 -2 -3 -4 -4 -3 -2 -0 -1 -1 -2 -2 -5 -5 -4 -4 -2 -2 -3 -4 -3 -2 -0 0 -0 -1 -2 -2 -1 -0 -0 -1 -1 -1 -2 -2 -3 -2 -1 0 2 4 5 3 3 2 2 2 1 1 2 2 2 2 1 0
-4 -4 -4 -3 -2 -2 -1 -1 -1 -2 -2 -1 -1 -0 -0 -0 -0 -1 -2 -2 -2 -1 -1 -2 -1 -1 1 1 0 -1 -3 -4 -5 -5 -5 -4 -4 -3 -3 -2 -2 -1 -1 0 1 3 2 0 -2 -3 -4 -4 -3 -1 0 -0 -1 -2 -5 -4 -3 -2 -4 -2 -2 -3 -3 -2 -2 -1 -0 0 -0 -2 -2 -1 -1 -1 -1 -1 -2 -2 -2 -2 -1 0 2 4 5 6 5 4 5 5 4 3 3 3 3 3 3 2 1
-4 -4 -4 -4 -3 -2 -2 -1 -1 -2 -2 -2 -1 -1 -0 -0 -0 -1 -2 -2 -2 -2 -2 -1 -1 -2 -1 1 2 1 -1 -3 -4 -5 -6 -6 -4 -2 -2 -4 -3 -2 0 1 1 2 2 -0 -3 -4 -4 -3 -2 0 2 0 -2 -4 -5 -3 -2 -3 -4 -2 -2 -3 -2 -2 -2 -2 -0 0 -0 -1 -2 -2 -2 -1 -1 -2 -2 -2 -1 -0 0 1 2 3 4 4 2 3 4 4 4 2 2 3 4 4 3 2 1
-4 -4 -4 -4 -3 -2 -2 -2 -2 -2 -2 -2 -2 -1 -1 0 -0 -0 -1 -2 -2 -3 -3 -1 -1 -2 -3 -1 1 2 1 -1 -3 -4 -5 -6 -7 -5 -1 -1 -2 -3 -1 0 2 3 2 -1 -3 -4 -4 -2 0 2 2 -1 -4 -5 -4 -3 -4 -4 -2 -1 -1 -2 -1 -3 -3 -2 0 -0 -0 -1 -3 -3 -3 -2 -2 -2 -2 -1 0 0 0 1 1 2 1 0 0 1 2 2 0 -3 -3 -1 1 1 -0 -1 -2
-5 -5 -4 -4 -4 -3 -2 -2 -2 -2 -2 -2 -2 -1 -1 -0 0 -0 -1 -1 -2 -2 -2 -2 -1 -1 -2 -3 -1 0 2 -0 -2 -3 -3 -5 -7 -9 -8 -2 1 1 -1 0 2 4 2 -0 -2 -3 -3 -0 2 3 1 -2 -4 -4 -3 -4 -4 -3 -1 -0 -0 -1 -2 -4 -3 -1 -0 -1 -1 -1 -2 -2 -3 -3 -3 -2 -1 -0 0 1 1 1 1 1 1 0 1 2 3 2 -2 -5 -6 -4 -2 -1 -1 -2 -2
-4 -5 -5 -4 -4 -3 -2 -2 -2 -3 -2 -2 -2 -1 -1 0 0 -0 -0 -0 -1 -2 -2 -2 -2 -1 2 -1 -2 -2 2 0 -1 -2 -4 -5 -6 -6 -10 -8 -4 1 2 3 4 4 2 -1 -3 -3 -1 1 3 2 -1 -2 -3 -3 -3 -4 -3 -2 -0 -1 -1 -2 -3 -3 -1 -0 -1 -2 -1 -0 -0 -2 -3 -4 -3 -1 -1 -0 0 1 1 1 1 1 0 1 2 3 4 3 -0 -3 -3 -1 1 2 1 1 -0
-4 -4 -4 -4 -4 -3 -2 -2 -2 -2 -3 -2 -2 -2 -1 0 0 0 -0 0 -0 -1 -1 -2 -3 -3 1 2 -0 -1 1 1 -0 -2 -2 -7 -6 -4 -4 -7 -8 -7 -3 1 5 7 5 -0 -2 -1 1 3 3 1 -1 -2 -2 -3 -3 -3 -2 -1 -1 -2 -2 -3 -3 -1 -1 -1 -2 -1 -0 0 -0 -2 -3 -4 -3 -2 -1 -0 1 2 2 1 1 0 0 1 2 4 4 4 1 -1 -1 1 3 2 1 0 0
-3 -3 -4 -4 -4 -3 -2 -1 -1 -1 -2 -2 -2 -2 -1 0 1 1 0 0 -0 -1 -0 -1 -2 -3 -3 0 1 1 1 3 1 -1 -2 -5 -6 -5 -2 -3 -6 -10 -8 -6 -2 3 10 3 1 1 5 5 3 1 1 -1 -2 -2 -1 -2 -2 -1 -2 -4 -4 -3 -2 -1 -1 -1 -2 -1 -1 -0 -1 -2 -3 -3 -3 -2 -0 1 2 2 2 2 1 0 1 2 3 4 4 3 1 -2 -2 -1 0 -0 -1 -1 0
-2 -2 -2 -3 -3 -3 -2 -2 -1 -1 -1 -1 -1 -1 -1 0 0 1 1 1 0 -0 -0 -0 -1 -1 -3 -3 -0 2 2 4 4 2 -1 -4 -5 -6 -6 -4 -3 -5 -8 -4 -6 -8 -2 3 2 1 7 6 4 2 3 1 0 -0 -1 -2 -1 -1 -3 -5 -4 -3 -3 -1 -1 -1 -3 -2 -2 -2 -2 -2 -2 -2 -2 -1 -0 1 1 1 1 1 1 1 1 1 3 4 3 2 -0 -2 -2 -2 -1 -0 0 1 3
-1 -1 -1 -2 -3 -3 -3 -3 -3 -2 -2 -2 -2 -1 -1 0 1 1 1 1 1 0 0 0 0 -0 -1 -3 -2 0 3 4 4 4 1 -2 -3 -4 -5 -7 -5 -3 -4 -0 -3 -7 -11 -5 -2 0 5 6 4 3 4 3 3 2 0 -0 -1 -2 -5 -5 -4 -3 -2 1 0 -2 -4 -2 -1 -1 -1 0 0 -0 -2 -1 -1 -0 -0 1 1 2 2 1 0 0 1 2 1 -0 -1 -2 -2 -1 0 1 2 4 5
-2 -1 -2 -3 -4 -4 -4 -5 -5 -4 -4 -4 -3 -3 -2 -0 1 1 1 1 1 1 1 1 1 1 1 -2 -3 -2 2 4 5 4 3 0 -1 -2 -1 -4 -6 -8 -7 -5 -4 -3 -4 -6 -6 -3 4 8 5 2 3 4 4 3 1 1 -1 -3 -4 -4 -3 -2 -0 1 -1 -4 -4 -0 0 0 0 2 1 -0 -2 -2 -1 -1 -0 2 3 3 2 1 -0 -0 1 0 -1 -2 -2 -1 -0 0 2 3 4 6 6
-3 -3 -3 -4 -5 -6 -6 -6 -6 -6 -5 -5 -5 -4 -3 -2 -1 0 0 1 1 1 1 1 1 1 1 0 -1 -3 -1 3 5 5 4 2 0 -0 -0 -1 -3 -4 -6 -9 -9 -6 -4 -2 -6 -9 -6 6 6 2 -0 1 2 3 3 2 0 -1 -2 -2 -2 -2 -1 -2 -4 -4 -1 0 -0 -1 0 1 0 -1 -1 -1 -1 -1 1 3 4 3 2 1 0 0 0 -1 -1 -1 -0 2 4 4 3 4 5 6 5
-4 -4 -5 -5 -6 -6 -7 -7 -7 -6 -6 -6 -6 -6 -5 -4 -2 -1 -0 0 0 1 0 0 0 0 1 1 0 -1 -2 0 3 4 5 4 3 1 0 -0 -1 -2 -2 -4 -6 -8 -8 -5 -4 -6 -13 -5 3 7 1 -2 1 4 5 3 2 1 -1 -2 -2 -3 -3 -4 -3 -1 2 0 -1 -1 0 -0 -0 -0 1 -1 -2 -2 1 2 3 3 3 2 1 1 -0 -1 -0 0 0 4 6 7 4 4 6 6 4
-4 -4 -4 -5 -6 -6 -5 -5 -5 -6 -6 -6 -6 -7 -6 -5 -4 -2 -1 -0 0 0 -0 -0 0 0 1 1 0 -0 -1 0 2 3 4 4 4 3 1 0 -0 -0 -0 -1 -3 -5 -6 -8 -7 -7 -11 -14 -5 6 8 2 1 3 4 4 3 1 -0 -1 -1 -2 -3 -2 -1 1 2 -0 -1 -1 -0 -1 0 1 1 -2 -4 -4 -1 2 3 4 3 2 2 1 0 1 1 1 0 5 9 10 6 5 6 6 3
-4 -5 -5 -5 -5 -6 -5 -5 -5 -5 -5 -6 -6 -7 -7 -6 -5 -4 -2 -1 0 1 1 0 1 1 1 1 0 -1 -1 0 2 3 2 3 3 3 2 2 1 1 1 -0 -1 -2 -3 -4 -6 -8 -11 -12 -12 -9 1 7 6 3 1 3 3 2 1 1 0 -1 -2 -1 0 1 1 -1 -1 -1 -1 -0 1 2 1 -3 -5 -4 -0 3 4 4 4 4 3 2 2 3 3 2 0 5 10 12 9 6 6 6 3
-4 -5 -6 -6 -5 -5 -5 -5 -5 -5 -5 -6 -6 -6 -6 -6 -5 -4 -3 -1 -0 1 1 1 2 2 3 2 1 -0 -1 -0 1 3 3 2 1 1 3 3 2 1 1 1 0 -1 -2 -2 -3 -5 -6 -8 -13 -15 -12 1 5 4 3 5 5 4 4 3 1 -1 -2 -0 1 1 -0 -1 -1 -1 -0 1 2 2 0 -3 -4 -2 1 4 5 6 7 6 5 3 4 5 5 4 1 5 10 14 12 8 7 6 2
Height
3148 3147 3146 3145 3144 3143 3142 3141 3140 3139 3138 3137 3136 3136 3135 3134 3133 3133 3132 3132 3132 3132 3131 3131 3131 3131 3132 3132 3132 3132 3132 3133 3133 3134 3135 3136 3137 3137 3137 3137 3137 3136 3136 3137 3137 3138 3138 3140 3141 3143 3144 3144 3145 3145 3146 3146 3146 3147 3147 3148 3148 3148 3149 3149 3150 3151 3151 3152 3153 3153 3153 3154 3155 3156 3156 3157 3158 3159 3160 3161 3161 3162 3162 3163 3164 3165 3165 3166 3167 3168 3168 3168 3169 3170 3171 3171 3171 3172 3173 3173 3174 3175 3176
3146 3145 3144 3143 3143 3142 3140 3139 3138 3137 3136 3135 3134 3133 3132 3131 3130 3130 3129 3128 3128 3128 3128 3127 3128 3128 3128 3128 3128 3128 3128 3128 3129 3129 3131 3132 3133 3133 3133 3133 3133 3132 3133 3133 3133 3134 3135 3136 3138 3139 3140 3141 3141 3142 3142 3143 3143 3143 3144 3145 3145 3146 3146 3147 3148 3148 3149 3149 3150 3151 3151 3152 3152 3153 3154 3155 3156 3157 3158 3159 3159 3159 3160 3161 3162 3162 3163 3164 3165 3165 3166 3167 3167 3168 3168 3169 3169 3170 3171 3172 3173 3173 3174
3143 3142 3141 3141 3140 3139 3138 3137 3136 3135 3134 3133 3132 3131 3129 3128 3128 3127 3126 3125 3124 3124 3124 3123 3123 3123 3123 3124 3124 3124 3124 3124 3125 3125 3127 3128 3128 3129 3129 3128 3128 3128 3128 3129 3129 3130 3131 3133 3134 3135 3136 3137 3138 3138 3139 3139 3140 3141 3141 3142 3143 3143 3144 3144 3145 3145 3146 3147 3147 3148 3148 3149 3150 3151 3152 3153 3154 3156 3157 3158 3158 3157 3158 3158 3159 3160 3161 3161 3162 3163 3164 3165 3165 3166 3166 3167 3168 3169 3170 3170 3171 3172 3173
3139 3138 3137 3137 3136 3135 3134 3134 3133 3133 3132 3131 3130 3129 3128 3126 3125 3124 3123 3122 3121 3121 3120 3120 3119 3119 3119 3119 3119 3120 3120 3120 3121 3122 3123 3123 3123 3124 3124 3124 3124 3124 3125 3125 3126 3127 3128 3129 3130 3131 3133 3133 3134 3134 3135 3136 3137 3138 3138 3139 3140 3141 3141 3142 3142 3143 3144 3144 3144 3145 3146 3147 3148 3149 3150 3151 3152 3153 3155 3155 3154 3155 3155 3156 3157 3157 3158 3159 3160 3161 3162 3163 3163 3164 3164 3165 3166 3167 3167 3168 3169 3170 3171
3135 3134 3133 3132 3131 3131 3130 3129 3129 3128 3128 3127 3127 3126 3125 3124 3123 3121 3120 3119 3118 3117 3117 3116 3116 3115 3115 3115 3115 3115 3116 3116 3117 3118 3119 3118 3118 3119 3119 3120 3120 3120 3121 3121 3122 3123 3123 3125 3126 3127 3128 3129 3130 3131 3131 3132 3133 3134 3135 3136 3137 3138 3138 3139 3139 3140 3141 3141 3141 3142 3143 3144 3145 3147 3148 3149 3151 3152 3152 3152 3152 3152 3153 3154 3155 3155 3155 3156 3157 3158 3159 3160 3161 3162 3163 3163 3164 3164 3165 3166 3167 3168 3169
3131 3130 3129 3128 3127 3126 3126 3125 3124 3124 3123 3123 3122 3122 3121 3120 3119 3118 3118 3117 3116 3114 3113 3113 3112 3112 3111 3111 3111 3111 3111 3112 3113 3114 3114 3114 3114 3114 3114 3115 3116 3116 3117 3117 3118 3119 3119 3121 3122 3123 3124 3125 3126 3127 3128 3128 3129 3130 3131 3132 3133 3134 3135 3136 3137 3137 3137 3138 3138 3139 3140 3141 3142 3143 3145 3147 3148 3149 3149 3149 3149 3149 3150 3151 3152 3153 3154 3154 3155 3156 3157 3158 3159 3160 3161 3161 3162 3163 3163 3164 3165 3166 3167
3128 3126 3125 3124 3123 3122 3122 3121 3120 3119 3119 3118 3118 3117 3117 3116 3116 3115 3114 3113 3113 3112 3111 3110 3109 3108 3107 3107 3107 3107 3107 3108 3108 3109 3110 3109 3109 3109 3110 3110 3111 3112 3112 3113 3114 3115 3115 3116 3118 3118 3120 3121 3122 3123 3123 3124 3125 3126 3127 3128 3129 3131 3132 3133 3133 3133 3134 3135 3135 3136 3137 3138 3139 3141 3142 3144 3145 3145 3146 3146 3146 3147 3148 3148 3149 3150 3150 3152 3153 3153 3154 3155 3157 3158 3159 3160 3160 3161 3162 3163 3163 3164 3165
3124 3123 3122 3121 3120 3118 3118 3117 3116 3115 3115 3114 3113 3113 3112 3112 3111 3111 3110 3109 3109 3108 3108 3107 3106 3105 3104 3103 3103 3102 3103 3103 3104 3104 3105 3105 3105 3105 3105 3106 3106 3107 3108 3108 3110 3110 3111 3112 3113 3114 3115 3116 3117 3118 3119 3120 3121 3122 3123 3124 3126 3127 3128 3129 3129 3130 3131 3131 3132 3133 3134 3135 3136 3138 3140 3141 3142 3143 3144 3144 3144 3144 3145 3146 3147 3147 3148 3149 3150 3152 3153 3154 3155 3156 3158 3158 3159 3160 3161 3161 3162 3163 3163
3121 3119 3118 3117 3116 3115 3114 3113 3112 3112 3111 3110 3109 3109 3108 3108 3107 3106 3106 3105 3105 3104 3104 3103 3103 3102 3101 3100 3099 3098 3098 3098 3099 3099 3100 3100 3100 3101 3101 3101 3102 3102 3103 3104 3105 3106 3107 3107 3108 3109 3110 3112 3113 3114 3115 3116 3117 3118 3119 3121 3122 3123 3124 3125 3126 3127 3128 3128 3129 3130 3131 3132 3133 3134 3136 3137 3139 3140 3141 3142 3142 3142 3143 3143 3144 3144 3146 3146 3148 3150 3151 3152 3153 3154 3154 3155 3156 3157 3158 3160 3161 3161 3162
3118 3116 3115 3114 3113 3112 3111 3110 3109 3108 3107 3106 3106 3105 3104 3103 3103 3102 3102 3101 3100 3100 3099 3099 3098 3098 3097 3097 3096 3095 3094 3094 3094 3094 3094 3095 3096 3096 3097 3097 3097 3098 3099 3099 3100 3101 3102 3103 3103 3105 3106 3107 3108 3109 3110 3112 3113 3114 3115 3117 3118 3118 3119 3121 3122 3123 3124 3125 3126 3127 3128 3129 3130 3131 3132 3133 3135 3137 3137 3138 3139 3140 3140 3141 3141 3142 3143 3144 3145 3147 3147 3149 3151 3151 3151 3152 3153 3154 3155 3157 3158 3160 3161
3115 3114 3113 3111 3110 3109 3108 3107 3106 3105 3104 3103 3102 3101 3100 3100 3099 3098 3098 3097 3096 3096 3095 3095 3094 3094 3093 3093 3092 3092 3091 3090 3089 3089 3089 3090 3091 3091 3092 3092 3093 3093 3094 3095 3096 3096 3097 3098 3099 3100 3101 3102 3103 3104 3106 3107 3108 3110 3111 3113 3113 3114 3115 3117 3118 3119 3121 3122 3123 3123 3124 3125 3127 3128 3129 3131 3132 3133 3134 3135 3136 3137 3138 3138 3139 3139 3140 3141 3142 3143 3144 3146 3147 3148 3148 3150 3151 3152 3153 3154 3155 3157 3158
3114 3112 3111 3109 3108 3107 3106 3104 3103 3102 3101 3100 3099 3098 3097 3096 3095 3094 3093 3093 3092 3092 3091 3091 3090 3090 3089 3089 3088 3088 3087 3086 3085 3085 3084 3085 3085 3086 3087 3087 3088 3089 3090 3090 3091 3092 3092 3093 3094 3095 3096 3098 3098 3100 3101 3103 3104 3105 3107 3108 3109 3110 3111 3112 3113 3115 3117 3118 3118 3120 3121 3122 3123 3124 3126 3127 3128 3129 3130 3131 3132 3133 3134 3135 3136 3136 3137 3138 3139 3140 3142 3142 3143 3145 3146 3147 3148 3149 3150 3152 3153 3154 3155
3112 3111 3109 3108 3106 3105 3103 3102 3101 3100 3098 3097 3096 3095 3094 3093 3092 3091 3090 3089 3088 3088 3087 3087 3086 3086 3085 3085 3084 3084 3084 3083 3082 3081 3080 3080 3080 3080 3081 3082 3083 3084 3085 3086 3086 3087 3087 3088 3089 3090 3091 3093 3094 3095 3096 3098 3099 3101 3102 3103 3104 3105 3107 3108 3109 3111 3112 3113 3114 3116 3117 3118 3119 3121 3122 3123 3124 3125 3126 3128 3129 3130 3131 3132 3133 3133 3134 3135 3136 3138 3138 3139 3141 3142 3144 3145 3146 3147 3148 3149 3150 3151 3153
3111 3109 3107 3106 3104 3103 3101 3100 3099 3097 3096 3095 3093 3092 3091 3090 3089 3088 3086 3085 3084 3084 3083 3083 3082 3081 3081 3081 3080 3080 3080 3079 3078 3077 3076 3076 3075 3075 3076 3076 3078 3079 3080 3081 3081 3082 3083 3083 3084 3085 3087 3088 3089 3090 3091 3093 3095 3096 3098 3099 3100 3101 3102 3103 3105 3106 3108 3109 3111 3112 3113 3115 3116 3118 3119 3120 3121 3122 3123 3124 3126 3127 3128 3129 3130 3131 3131 3132 3133 3134 3136 3137 3138 3139 3141 3142 3143 3145 3146 3147 3148 3149 3150
3108 3107 3105 3103 3102 3100 3099 3097 3096 3095 3093 3092 3091 3089 3088 3087 3086 3085 3083 3082 3081 3080 3079 3078 3078 3077 3077 3076 3076 3076 3076 3075 3074 3073 3073 3072 3071 3070 3070 3071 3072 3073 3074 3075 3076 3077 3078 3079 3079 3080 3081 3083 3084 3085 3087 3088 3090 3091 3093 3094 3095 3096 3098 3099 3100 3102 3103 3105 3106 3108 3109 3111 3113 3114 3115 3116 3118 3118 3120 3121 3122 3124 3125 3126 3127 3128 3129 3129 3130 3132 3133 3134 3135 3137 3138 3139 3141 3143 3144 3144 3145 3146 3148
3106 3104 3102 3100 3098 3097 3095 3094 3093 3091 3090 3089 3088 3086 3085 3084 3083 3082 3080 3079 3078 3077 3076 3075 3074 3073 3073 3072 3072 3072 3072 3071 3071 3070 3069 3068 3067 3066 3066 3066 3066 3067 3068 3070 3071 3072 3073 3074 3075 3075 3077 3078 3079 3080 3082 3083 3085 3087 3088 3089 3090 3092 3093 3094 3096 3097 3098 3100 3102 3104 3106 3107 3109 3110 3112 3113 3114 3115 3116 3117 3119 3120 3122 3123 3124 3125 3126 3127 3128 3129 3130 3131 3132 3133 3135 3137 3138 3140 3141 3143 3143 3144 3145
3103 3101 3099 3097 3095 3093 3092 3090 3089 3088 3086 3085 3084 3083 3082 3081 3080 3078 3077 3076 3074 3073 3072 3071 3070 3069 3069 3068 3068 3067 3067 3067 3067 3066 3066 3065 3064 3063 3062 3061 3061 3061 3062 3064 3065 3067 3068 3069 3070 3071 3072 3073 3074 3075 3077 3078 3080 3082 3083 3084 3086 3087 3088 3089 3091 3093 3094 3096 3098 3100 3102 3103 3105 3106 3108 3109 3111 3112 3113 3114 3115 3117 3118 3119 3121 3122 3123 3124 3125 3126 3128 3129 3130 3130 3132 3134 3136 3137 3138 3140 3142 3143 3143
3099 3097 3095 3093 3092 3090 3088 3087 3085 3084 3083 3081 3080 3079 3078 3077 3076 3075 3074 3073 3071 3070 3068 3067 3066 3066 3065 3064 3063 3063 3062 3062 3062 3062 3062 3061 3060 3059 3058 3057 3057 3057 3057 3058 3059 3061 3063 3064 3065 3066 3067 3068 3069 3070 3071 3073 3075 3076 3078 3079 3081 3082 3083 3085 3086 3088 3090 3092 3094 3096 3097 3099 3101 3103 3104 3105 3107 3108 3110 3111 3112 3113 3114 3116 3117 3118 3119 3121 3122 3123 3125 3126 3128 3128 3129 3131 3133 3134 3136 3137 3139 3140 3141
3095 3094 3092 3090 3088 3087 3085 3083 3082 3080 3079 3078 3076 3075 3074 3073 3072 3071 3070 3069 3068 3067 3065 3064 3063 3062 3061 3060 3060 3059 3058 3058 3057 3057 3057 3057 3057 3056 3055 3054 3053 3052 3052 3053 3053 3055 3057 3059 3060 3061 3062 3063 3063 3065 3066 3068 3070 3071 3073 3074 3076 3077 3078 3080 3082 3083 3085 3087 3089 3091 3093 3095 3097 3098 3100 3101 3103 3104 3106 3107 3109 3110 3111 3112 3113 3114 3116 3117 3119 3120 3121 3123 3125 3126 3127 3128 3129 3130 3132 3134 3136 3137 3138
3091 3090 3088 3087 3085 3083 3081 3080 3078 3077 3075 3073 3072 3071 3070 3069 3068 3067 3066 3065 3064 3063 3062 3060 3059 3058 3058 3057 3056 3055 3054 3054 3053 3053 3053 3053 3052 3052 3051 3050 3049 3049 3048 3048 3048 3049 3051 3053 3055 3056 3057 3058 3058 3060 3061 3063 3064 3066 3068 3069 3071 3072 3074 3075 3077 3078 3080 3082 3084 3087 3088 3091 3092 3094 3096 3097 3099 3101 3102 3103 3105 3106 3108 3108 3109 3111 3112 3114 3115 3117 3118 3120 3121 3123 3124 3125 3126 3127 3128 3131 3133 3134 3135
3087 3085 3084 3082 3081 3079 3078 3076 3074 3073 3071 3070 3068 3067 3066 3065 3064 3063 3062 3061 3060 3059 3058 3057 3056 3055 3054 3053 3052 3051 3050 3050 3049 3049 3048 3048 3048 3048 3048 3047 3046 3045 3044 3044 3043 3044 3045 3047 3049 3051 3052 3053 3054 3055 3056 3058 3059 3061 3063 3064 3065 3067 3069 3070 3072 3073 3075 3077 3079 3082 3083 3085 3087 3089 3091 3093 3095 3097 3098 3100 3101 3103 3104 3105 3107 3108 3109 3111 3112 3114 3115 3116 3118 3119 3121 3122 3123 3124 3126 3128 3130 3132 3133
3083 3081 3079 3078 3076 3074 3073 3072 3070 3068 3067 3065 3064 3063 3061 3060 3060 3059 3058 3057 3056 3055 3054 3053 3052 3051 3051 3050 3049 3048 3047 3046 3045 3045 3044 3044 3044 3043 3043 3043 3042 3042 3041 3040 3040 3040 3040 3041 3043 3045 3047 3048 3049 3050 3051 3053 3054 3056 3057 3059 3060 3062 3064 3065 3067 3069 3070 3072 3074 3076 3078 3080 3083 3085 3087 3089 3091 3093 3095 3096 3098 3099 3100 3102 3103 3105 3106 3108 3109 3111 3112 3113 3115 3116 3118 3119 3120 3122 3123 3124 3126 3129 3130
3078 3077 3075 3073 3072 3070 3068 3067 3066 3064 3062 3061 3060 3059 3057 3056 3055 3054 3053 3052 3052 3051 3049 3049 3048 3047 3047 3046 3046 3044 3043 3042 3042 3041 3040 3040 3040 3039 3039 3039 3038 3038 3037 3036 3036 3036 3036 3036 3037 3039 3041 3043 3044 3045 3046 3047 3049 3050 3052 3054 3055 3057 3058 3060 3062 3064 3065 3067 3069 3072 3074 3076 3078 3080 3083 3085 3087 3089 3091 3093 3094 3096 3097 3099 3100 3102 3103 3105 3106 3108 3109 3110 3112 3113 3114 3116 3118 3119 3120 3121 3123 3125 3127
3074 3073 3070 3069 3068 3066 3064 3063 3061 3060 3058 3057 3056 3055 3053 3052 3051 3050 3049 3048 3047 3046 3045 3045 3044 3043 3043 3042 3042 3041 3040 3039 3038 3037 3036 3036 3036 3036 3035 3035 3035 3034 3033 3033 3032 3032 3032 3032 3032 3033 3035 3037 3039 3040 3041 3043 3044 3045 3047 3048 3050 3052 3053 3055 3057 3059 3060 3063 3064 3067 3069 3071 3073 3076 3078 3081 3083 3085 3087 3089 3091 3092 3094 3095 3097 3098 3100 3101 3103 3104 3106 3107 3109 3110 3112 3113 3115 3117 3118 3119 3120 3122 3124
3070 3068 3066 3065 3063 3062 3060 3059 3058 3056 3054 3053 3052 3051 3049 3048 3047 3046 3045 3044 3043 3042 3042 3041 3040 3039 3038 3038 3038 3037 3036 3036 3035 3033 3033 3032 3032 3032 3031 3031 3031 3030 3030 3029 3029 3028 3028 3028 3028 3028 3029 3031 3033 3035 3037 3038 3039 3040 3042 3043 3045 3047 3048 3050 3052 3053 3056 3058 3059 3062 3064 3066 3068 3071 3073 3076 3078 3081 3083 3085 3087 3088 3090 3092 3093 3095 3097 3098 3099 3101 3103 3104 3106 3107 3109 3110 3111 3113 3115 3117 3118 3119 3121
3066 3065 3063 3061 3059 3058 3056 3054 3053 3052 3050 3049 3048 3047 3045 3044 3043 3042 3041 3040 3039 3038 3038 3037 3036 3035 3034 3034 3033 3033 3032 3032 3031 3030 3029 3028 3028 3028 3027 3027 3027 3026 3026 3026 3025 3025 3024 3024 3024 3024 3025 3026 3027 3029 3032 3033 3034 3035 3036 3038 3040 3042 3043 3045 3047 3048 3051 3053 3054 3057 3059 3061 3063 3066 3069 3071 3073 3076 3078 3080 3083 3084 3086 3088 3090 3092 3093 3095 3096 3098 3099 3101 3103 3104 3106 3107 3108 3110 3111 3113 3115 3117 3118
3063 3061 3059 3057 3055 3054 3052 3051 3049 3048 3047 3045 3044 3043 3041 3040 3039 3038 3038 3036 3035 3034 3034 3033 3032 3031 3031 3030 3029 3029 3028 3028 3027 3027 3026 3025 3024 3024 3023 3023 3023 3023 3023 3022 3022 3021 3021 3021 3020 3020 3020 3021 3022 3024 3026 3028 3030 3031 3031 3033 3035 3036 3038 3040 3042 3043 3045 3048 3049 3052 3054 3056 3058 3061 3063 3066 3069 3071 3074 3076 3078 3080 3082 3084 3086 3088 3089 3091 3093 3094 3096 3097 3099 3101 3103 3104 3105 3106 3108 3110 3113 3114 3115
3059 3058 3056 3053 3052 3050 3048 3047 3045 3044 3043 3041 3040 3039 3037 3036 3035 3034 3033 3033 3031 3031 3030 3029 3028 3028 3027 3026 3026 3025 3024 3024 3023 3023 3022 3022 3021 3020 3020 3019 3019 3019 3019 3018 3018 3018 3018 3017 3017 3017 3017 3017 3017 3018 3020 3023 3025 3026 3027 3028 3029 3031 3033 3035 3037 3038 3040 3043 3044 3047 3049 3051 3053 3056 3058 3061 3064 3067 3069 3071 3073 3075 3078 3079 3081 3083 3085 3087 3088 3090 3092 3093 3095 3097 3099 3101 3103 3104 3105 3107 3109 3111 3113
3056 3054 3053 3051 3048 3047 3045 3043 3042 3040 3039 3038 3036 3035 3033 3033 3032 3030 3029 3029 3028 3027 3026 3025 3024 3024 3023 3023 3022 3021 3021 3020 3020 3019 3018 3018 3018 3017 3016 3016 3016 3015 3015 3015 3015 3014 3014 3014 3013 3013 3013 3013 3013 3013 3015 3017 3020 3022 3023 3023 3024 3026 3028 3030 3031 3033 3035 3037 3039 3042 3044 3046 3048 3051 3053 3056 3059 3061 3063 3066 3068 3070 3073 3075 3077 3079 3081 3083 3084 3086 3088 3090 3092 3093 3096 3098 3099 3101 3102 3104 3106 3108 3109
3053 3051 3050 3048 3046 3043 3042 3040 3038 3037 3035 3034 3033 3031 3030 3029 3028 3027 3025 3025 3024 3023 3022 3022 3021 3020 3019 3019 3018 3018 3017 3016 3016 3016 3015 3015 3014 3013 3013 3013 3012 3011 3011 3011 3011 3011 3011 3011 3010 3010 3009 3009 3009 3009 3010 3012 3015 3017 3018 3019 3020 3021 3023 3025 3026 3028 3030 3032 3034 3037 3039 3041 3043 3046 3048 3051 3053 3056 3058 3061 3063 3066 3068 3071 3073 3075 3077 3079 3081 3083 3085 3086 3088 3090 3092 3094 3095 3097 3099 3101 3103 3105 3106
3050 3048 3046 3045 3043 3041 3039 3037 3035 3033 3032 3031 3029 3028 3026 3025 3024 3023 3022 3021 3020 3019 3018 3018 3017 3016 3016 3015 3014 3014 3013 3013 3012 3012 3011 3011 3010 3010 3009 3009 3008 3008 3008 3008 3007 3007 3007 3007 3007 3007 3006 3005 3005 3005 3006 3007 3009 3012 3014 3015 3015 3016 3018 3019 3022 3023 3025 3027 3029 3032 3034 3036 3038 3041 3043 3046 3048 3051 3054 3057 3059 3062 3064 3066 3069 3071 3073 3075 3077 3079 3081 3083 3085 3086 3088 3090 3092 3093 3095 3098 3099 3101 3103
3047 3045 3043 3042 3039 3038 3036 3034 3033 3031 3029 3028 3026 3024 3023 3022 3021 3019 3018 3017 3017 3016 3015 3014 3013 3013 3012 3011 3011 3010 3009 3009 3008 3008 3007 3007 3007 3006 3006 3005 3005 3004 3004 3004 3003 3003 3003 3004 3003 3003 3003 3002 3002 3002 3002 3003 3004 3007 3009 3010 3011 3012 3013 3014 3017 3018 3020 3022 3024 3027 3029 3031 3033 3036 3038 3041 3043 3046 3049 3051 3054 3057 3059 3062 3064 3067 3069 3071 3074 3076 3078 3079 3081 3083 3084 3086 3088 3090 3092 3094 3096 3098 3099
3044 3042 3040 3038 3036 3034 3033 3031 3029 3028 3026 3025 3023 3021 3020 3018 3017 3016 3015 3014 3013 3012 3011 3010 3009 3009 3008 3008 3007 3006 3006 3005 3004 3004 3003 3003 3003 3003 3002 3002 3001 3001 3000 3000 3000 3000 3000 3000 3000 3000 2999 2999 2998 2998 2998 2999 3000 3002 3004 3006 3007 3008 3008 3010 3012 3014 3016 3018 3019 3022 3024 3026 3028 3031 3033 3036 3038 3041 3043 3046 3049 3052 3054 3057 3060 3063 3065 3068 3070 3072 3074 3076 3078 3080 3081 3083 3085 3087 3089 3091 3093 3094 3096
3041 3039 3037 3035 3033 3031 3029 3028 3026 3024 3023 3022 3020 3018 3017 3015 3014 3013 3011 3010 3009 3008 3008 3007 3006 3005 3004 3004 3003 3002 3002 3001 3001 3000 3000 2999 2999 2998 2998 2998 2998 2997 2997 2997 2996 2996 2996 2996 2997 2996 2996 2995 2995 2994 2994 2995 2996 2997 2999 3001 3003 3003 3004 3005 3007 3009 3011 3013 3014 3016 3018 3021 3023 3026 3028 3030 3033 3036 3038 3042 3045 3048 3050 3053 3056 3058 3061 3063 3066 3068 3070 3073 3074 3076 3078 3080 3082 3083 3086 3088 3089 3091 3093
3038 3036 3034 3032 3030 3028 3026 3024 3023 3021 3020 3018 3017 3015 3013 3012 3011 3009 3008 3007 3006 3005 3004 3003 3002 3002 3001 3000 2999 2999 2998 2998 2997 2997 2996 2996 2995 2995 2994 2994 2994 2993 2993 2993 2993 2992 2992 2993 2993 2993 2993 2992 2992 2991 2991 2991 2992 2993 2994 2996 2998 2999 3000 3001 3002 3004 3006 3008 3009 3011 3013 3016 3018 3021 3023 3026 3028 3031 3034 3038 3041 3043 3046 3049 3052 3054 3057 3059 3062 3064 3067 3069 3071 3073 3075 3077 3078 3080 3083 3084 3086 3088 3090
3034 3032 3031 3028 3027 3025 3023 3021 3019 3018 3016 3015 3013 3012 3010 3009 3008 3006 3005 3003 3003 3002 3001 3000 2999 2998 2997 2997 2996 2995 2995 2994 2993 2993 2993 2992 2992 2991 2991 2990 2990 2990 2990 2989 2989 2989 2989 2989 2989 2989 2989 2988 2988 2988 2988 2988 2988 2989 2990 2992 2993 2995 2996 2997 2998 2999 3001 3003 3005 3006 3008 3011 3013 3016 3019 3022 3024 3027 3030 3033 3036 3039 3042 3045 3048 3050 3053 3055 3058 3060 3063 3065 3067 3069 3071 3073 3075 3078 3079 3081 3083 3085 3087
3031 3029 3027 3025 3023 3021 3019 3018 3016 3014 3013 3011 3010 3008 3007 3005 3004 3003 3002 3000 2999 2998 2997 2996 2995 2994 2994 2993 2993 2992 2991 2991 2990 2990 2989 2988 2988 2988 2988 2987 2986 2986 2986 2986 2985 2985 2985 2986 2985 2985 2985 2985 2984 2984 2984 2984 2985 2985 2986 2987 2989 2991 2992 2993 2993 2994 2996 2998 3000 3002 3004 3006 3009 3012 3014 3017 3020 3022 3025 3028 3031 3034 3037 3040 3043 3045 3048 3051 3054 3056 3058 3061 3063 3066 3068 3070 3072 3074 3076 3078 3080 3082 3084
3028 3026 3023 3022 3020 3018 3016 3014 3013 3011 3009 3008 3007 3005 3004 3002 3001 2999 2998 2997 2996 2995 2994 2993 2992 2991 2990 2990 2989 2988 2988 2987 2987 2986 2985 2985 2985 2984 2984 2983 2983 2983 2983 2982 2982 2982 2982 2982 2982 2981 2981 2981 2981 2981 2981 2981 2981 2982 2982 2983 2985 2987 2988 2988 2989 2990 2991 2993 2995 2997 2999 3002 3004 3007 3009 3012 3015 3018 3020 3023 3026 3029 3032 3035 3038 3041 3044 3047 3050 3052 3055 3057 3060 3062 3065 3067 3069 3072 3073 3075 3077 3079 3081
3024 3022 3020 3018 3016 3014 3012 3011 3009 3007 3006 3004 3003 3002 3000 2999 2997 2996 2995 2993 2992 2991 2990 2989 2988 2988 2987 2986 2985 2985 2984 2984 2983 2982 2982 2982 2981 2981 2980 2980 2980 2979 2979 2978 2978 2978 2979 2978 2978 2978 2978 2978 2978 2978 2978 2978 2978 2978 2979 2980 2981 2983 2983 2984 2985 2986 2987 2988 2991 2993 2995 2998 3000 3002 3005 3007 3010 3013 3016 3018 3022 3025 3028 3031 3034 3037 3040 3043 3046 3048 3051 3053 3056 3058 3061 3064 3066 3068 3070 3072 3074 3076 3078
3021 3019 3017 3015 3013 3011 3009 3007 3005 3004 3002 3001 3000 2998 2997 2995 2994 2993 2991 2990 2989 2988 2987 2986 2985 2984 2983 2983 2982 2981 2981 2980 2979 2979 2978 2978 2978 2977 2977 2977 2976 2976 2975 2975 2975 2975 2975 2975 2974 2974 2974 2974 2974 2974 2974 2975 2975 2975 2976 2977 2977 2978 2979 2980 2981 2982 2983 2984 2986 2989 2991 2993 2995 2997 3000 3003 3005 3008 3011 3014 3017 3020 3023 3027 3029 3033 3035 3038 3041 3044 3047 3050 3052 3055 3058 3060 3063 3065 3067 3069 3071 3073 3074
3018 3016 3013 3011 3009 3007 3005 3003 3002 3000 2999 2997 2996 2995 2993 2992 2990 2989 2988 2987 2985 2984 2983 2983 2981 2980 2979 2979 2978 2978 2977 2977 2976 2975 2975 2975 2974 2974 2973 2973 2973 2973 2972 2972 2972 2972 2972 2971 2971 2971 2970 2970 2970 2970 2971 2971 2972 2972 2972 2973 2973 2974 2975 2976 2977 2978 2979 2980 2982 2984 2987 2989 2991 2993 2995 2998 3001 3003 3007 3010 3013 3016 3019 3022 3025 3028 3031 3034 3037 3040 3043 3046 3048 3051 3054 3056 3058 3061 3063 3065 3067 3069 3071
3014 3012 3010 3008 3006 3004 3002 3000 2998 2997 2995 2994 2993 2991 2990 2988 2987 2985 2984 2983 2982 2981 2980 2979 2978 2977 2976 2975 2975 2974 2973 2973 2973 2972 2971 2971 2971 2970 2970 2970 2970 2969 2969 2969 2968 2968 2968 2968 2968 2967 2967 2966 2967 2968 2968 2968 2968 2968 2969 2969 2970 2970 2972 2973 2973 2974 2975 2976 2978 2980 2982 2985 2987 2988 2991 2993 2996 2999 3002 3005 3008 3011 3015 3018 3020 3023 3026 3029 3032 3035 3038 3042 3044 3047 3050 3052 3055 3057 3059 3062 3063 3065 3068
3011 3009 3007 3004 3003 3000 2998 2997 2995 2993 2992 2990 2989 2988 2986 2985 2983 2982 2980 2979 2978 2977 2977 2976 2975 2973 2973 2972 2971 2970 2970 2969 2969 2968 2968 2968 2967 2967 2967 2967 2966 2966 2966 2966 2965 2965 2965 2964 2964 2963 2963 2963 2964 2964 2964 2964 2965 2965 2965 2966 2966 2967 2968 2969 2970 2971 2972 2973 2973 2975 2978 2980 2982 2984 2986 2988 2991 2994 2998 3001 3004 3007 3010 3013 3015 3018 3021 3024 3028 3031 3034 3037 3040 3043 3046 3048 3051 3054 3056 3058 3060 3062 3064
3008 3006 3003 3001 2999 2997 2995 2993 2991 2989 2988 2987 2985 2984 2983 2981 2980 2978 2977 2975 2974 2973 2973 2972 2971 2970 2969 2968 2968 2967 2966 2965 2965 2965 2964 2964 2963 2963 2963 2963 2963 2963 2963 2963 2962 2962 2962 2961 2961 2960 2960 2960 2960 2961 2961 2961 2962 2962 2962 2962 2963 2964 2965 2966 2967 2967 2968 2969 2970 2971 2973 2975 2978 2980 2982 2984 2987 2990 2993 2996 2999 3002 3005 3008 3011 3014 3017 3020 3023 3027 3030 3033 3036 3039 3042 3045 3048 3050 3053 3055 3057 3058 3061
3005 3003 3001 2998 2996 2994 2992 2990 2988 2986 2984 2983 2982 2980 2979 2978 2976 2975 2973 2972 2971 2970 2969 2968 2968 2967 2966 2965 2964 2963 2963 2962 2961 2961 2960 2960 2960 2960 2960 2960 2959 2959 2959 2959 2959 2959 2959 2958 2958 2957 2957 2957 2957 2957 2958 2958 2958 2958 2958 2958 2959 2961 2962 2963 2963 2964 2965 2965 2966 2967 2969 2971 2973 2976 2978 2980 2983 2985 2988 2991 2994 2998 3001 3003 3007 3009 3013 3016 3019 3023 3026 3028 3032 3035 3038 3041 3043 3046 3049 3052 3053 3055 3057
3002 3000 2997 2995 2993 2991 2988 2986 2984 2983 2981 2979 2978 2977 2975 2974 2973 2971 2970 2968 2967 2966 2965 2964 2963 2963 2963 2962 2961 2960 2959 2958 2958 2957 2957 2956 2956 2956 2956 2956 2956 2956 2956 2956 2956 2956 2956 2955 2954 2954 2954 2954 2954 2954 2955 2955 2954 2954 2955 2956 2956 2957 2958 2959 2960 2961 2962 2962 2963 2964 2965 2967 2969 2972 2974 2977 2979 2981 2984 2987 2990 2993 2996 2999 3003 3006 3009 3012 3015 3018 3022 3024 3028 3031 3034 3037 3040 3043 3045 3048 3050 3053 3055
2999 2997 2994 2992 2989 2987 2985 2983 2981 2979 2977 2975 2974 2973 2971 2970 2969 2967 2966 2965 2963 2962 2961 2960 2959 2959 2959 2958 2958 2957 2956 2955 2954 2953 2953 2953 2953 2952 2952 2952 2953 2953 2953 2953 2953 2953 2953 2952 2951 2951 2951 2951 2951 2952 2952 2951 2951 2951 2952 2952 2953 2954 2955 2956 2957 2958 2958 2959 2959 2960 2962 2963 2965 2968 2970 2973 2975 2977 2979 2983 2986 2989 2993 2996 2999 3002 3005 3008 3011 3015 3018 3021 3024 3027 3030 3033 3036 3039 3042 3045 3047 3050 3052
2996 2993 2991 2988 2986 2984 2982 2979 2978 2975 2973 2972 2970 2968 2967 2966 2965 2963 2962 2961 2959 2958 2957 2956 2955 2955 2955 2954 2954 2953 2953 2952 2951 2950 2949 2949 2949 2949 2948 2948 2949 2949 2949 2949 2950 2950 2950 2949 2948 2948 2948 2948 2948 2949 2948 2948 2948 2948 2948 2949 2950 2951 2952 2953 2954 2954 2955 2955 2956 2957 2958 2959 2961 2963 2966 2968 2971 2973 2975 2978 2982 2985 2989 2992 2995 2998 3001 3004 3007 3011 3014 3017 3020 3023 3026 3029 3032 3035 3038 3041 3043 3046 3049
2993 2990 2988 2985 2983 2980 2978 2976 2974 2972 2970 2968 2966 2964 2963 2962 2961 2959 2958 2957 2955 2954 2953 2952 2951 2950 2950 2950 2950 2950 2949 2948 2948 2947 2946 2945 2945 2945 2945 2945 2945 2945 2946 2946 2946 2947 2947 2946 2945 2945 2945 2945 2946 2946 2945 2945 2945 2945 2945 2946 2947 2948 2949 2950 2950 2951 2951 2952 2953 2954 2955 2956 2958 2960 2962 2964 2967 2969 2972 2974 2978 2981 2985 2988 2991 2994 2997 3000 3003 3005 3008 3012 3015 3018 3021 3024 3027 3030 3033 3037 3039 3042 3045
2990 2987 2984 2982 2979 2977 2975 2973 2970 2968 2966 2964 2962 2961 2959 2958 2957 2955 2954 2953 2951 2950 2949 2948 2947 2946 2946 2945 2945 2946 2945 2945 2944 2943 2943 2942 2941 2941 2941 2942 2942 2942 2942 2943 2943 2943 2943 2943 2943 2942 2943 2943 2943 2943 2942 2942 2942 2942 2942 2943 2944 2945 2946 2946 2947 2948 2948 2950 2951 2951 2952 2953 2954 2956 2958 2961 2963 2965 2968 2971 2974 2977 2981 2984 2987 2990 2993 2996 2998 3002 3005 3008 3012 3014 3016 3019 3022 3026 3029 3033 3036 3039 3042
2987 2984 2981 2979 2976 2973 2971 2969 2966 2964 2962 2960 2958 2957 2955 2954 2953 2951 2950 2949 2947 2946 2945 2944 2943 2943 2942 2941 2941 2941 2942 2941 2941 2940 2939 2938 2938 2938 2937 2937 2938 2938 2939 2939 2940 2940 2940 2940 2940 2940 2940 2940 2940 2940 2939 2939 2939 2939 2939 2940 2941 2942 2942 2943 2943 2944 2946 2947 2947 2948 2948 2949 2951 2953 2954 2957 2959 2962 2964 2967 2970 2973 2977 2980 2983 2987 2989 2992 2995 2998 3002 3005 3008 3010 3013 3016 3018 3022 3026 3030 3033 3036 3038
2984 2981 2978 2975 2973 2970 2968 2965 2963 2960 2958 2956 2954 2953 2951 2950 2948 2947 2946 2945 2943 2942 2941 2940 2939 2938 2938 2938 2937 2937 2938 2937 2937 2937 2936 2935 2935 2935 2933 2933 2933 2934 2934 2936 2937 2938 2937 2937 2936 2937 2937 2938 2938 2937 2937 2937 2937 2937 2937 2937 2938 2938 2939 2939 2940 2942 2943 2943 2944 2945 2946 2947 2948 2949 2951 2953 2956 2958 2961 2963 2966 2969 2973 2976 2980 2983 2986 2988 2992 2994 2998 3001 3003 3006 3009 3012 3015 3018 3023 3026 3029 3032 3034
2981 2978 2975 2972 2969 2967 2964 2962 2959 2957 2955 2953 2950 2948 2947 2946 2944 2943 2942 2940 2939 2938 2937 2936 2935 2934 2933 2933 2933 2933 2934 2934 2933 2933 2933 2932 2931 2931 2931 2931 2930 2930 2931 2931 2932 2933 2934 2933 2933 2934 2935 2935 2935 2935 2934 2934 2934 2934 2934 2934 2935 2935 2936 2936 2937 2938 2940 2940 2941 2942 2943 2944 2945 2946 2947 2950 2952 2955 2957 2960 2963 2966 2969 2972 2976 2979 2982 2985 2988 2991 2994 2997 3000 3002 3005 3008 3011 3014 3018 3022 3025 3028 3031
2978 2975 2972 2969 2966 2963 2961 2959 2956 2954 2952 2949 2947 2945 2943 2942 2940 2939 2938 2936 2935 2934 2933 2932 2931 2930 2929 2929 2929 2929 2930 2930 2930 2930 2929 2928 2928 2928 2928 2928 2928 2928 2928 2928 2928 2928 2929 2930 2930 2931 2932 2932 2932 2932 2932 2932 2932 2931 2932 2932 2932 2932 2933 2933 2935 2936 2937 2938 2938 2939 2940 2941 2942 2943 2945 2947 2949 2951 2954 2957 2959 2962 2965 2968 2972 2975 2978 2981 2984 2987 2990 2993 2996 2998 3001 3004 3007 3010 3014 3018 3021 3024 3028
2974 2972 2969 2966 2963 2961 2958 2956 2953 2951 2948 2946 2944 2942 2939 2938 2936 2935 2933 2932 2931 2930 2929 2928 2927 2927 2926 2925 2925 2925 2926 2927 2927 2927 2927 2926 2925 2925 2925 2925 2924 2925 2925 2925 2925 2925 2925 2926 2927 2927 2928 2929 2929 2929 2929 2929 2929 2929 2929 2929 2929 2929 2930 2931 2932 2933 2934 2934 2935 2936 2937 2938 2939 2941 2942 2944 2946 2948 2951 2953 2955 2958 2961 2965 2968 2972 2975 2978 2980 2983 2986 2988 2991 2994 2997 3000 3003 3007 3011 3014 3018 3021 3024
2972 2969 2966 2963 2961 2958 2955 2953 2950 2948 2946 2943 2941 2938 2936 2934 2933 2931 2930 2928 2928 2927 2925 2924 2923 2923 2922 2921 2921 2921 2922 2923 2923 2923 2923 2923 2923 2923 2922 2922 2922 2921 2922 2922 2922 2922 2923 2922 2922 2923 2925 2926 2926 2926 2926 2927 2927 2927 2927 2927 2927 2927 2928 2928 2929 2930 2930 2931 2932 2933 2935 2936 2937 2938 2939 2941 2942 2945 2947 2949 2952 2954 2958 2961 2965 2968 2971 2973 2976 2979 2982 2985 2987 2990 2993 2997 3000 3003 3007 3011 3014 3018 3021
2969 2967 2964 2961 2958 2956 2953 2950 2948 2945 2943 2941 2938 2936 2934 2932 2930 2928 2926 2925 2924 2923 2922 2921 2920 2919 2918 2918 2917 2917 2918 2918 2919 2920 2920 2920 2920 2920 2920 2920 2920 2920 2919 2919 2919 2919 2919 2919 2919 2918 2920 2923 2923 2923 2923 2924 2924 2924 2924 2924 2924 2925 2925 2926 2926 2927 2928 2928 2930 2932 2932 2933 2934 2935 2936 2937 2939 2942 2944 2946 2948 2951 2954 2958 2961 2964 2967 2970 2973 2976 2978 2981 2984 2987 2990 2993 2997 3000 3003 3007 3011 3014 3017
2967 2965 2962 2959 2957 2954 2951 2948 2946 2943 2941 2938 2936 2933 2931 2929 2927 2925 2923 2922 2921 2920 2919 2918 2917 2916 2915 2915 2914 2913 2913 2914 2915 2916 2917 2917 2918 2918 2918 2917 2918 2918 2918 2917 2917 2917 2916 2917 2916 2916 2916 2918 2920 2920 2920 2921 2922 2922 2922 2922 2922 2923 2923 2923 2924 2924 2925 2926 2928 2929 2929 2930 2931 2932 2933 2935 2937 2939 2940 2943 2945 2948 2951 2954 2957 2960 2963 2966 2969 2972 2974 2977 2980 2983 2986 2990 2993 2997 3000 3003 3007 3010 3013
2966 2963 2961 2958 2955 2953 2950 2947 2944 2942 2939 2937 2934 2932 2929 2927 2925 2923 2921 2919 2918 2917 2916 2915 2914 2913 2913 2912 2911 2911 2910 2911 2912 2913 2913 2914 2914 2915 2915 2915 2915 2916 2916 2915 2915 2915 2914 2914 2914 2913 2914 2914 2915 2916 2918 2918 2918 2919 2920 2920 2920 2920 2921 2921 2921 2922 2923 2923 2925 2926 2927 2928 2928 2929 2931 2933 2934 2936 2938 2939 2941 2944 2948 2951 2954 2957 2960 2963 2966 2968 2971 2974 2977 2980 2983 2986 2990 2994 2997 3000 3003 3006 3009
2965 2962 2960 2957 2954 2951 2949 2946 2943 2940 2938 2935 2932 2930 2927 2925 2923 2921 2919 2917 2916 2914 2913 2912 2912 2911 2910 2909 2908 2908 2907 2908 2908 2909 2910 2911 2911 2912 2913 2913 2913 2913 2913 2913 2913 2913 2913 2913 2913 2912 2912 2911 2911 2912 2915 2916 2916 2916 2917 2918 2918 2918 2918 2919 2919 2919 2920 2921 2922 2923 2924 2925 2926 2927 2928 2930 2932 2933 2935 2936 2938 2941 2944 2948 2951 2954 2957 2960 2962 2965 2968 2970 2973 2976 2979 2982 2986 2990 2993 2996 2999 3002 3005
2964 2961 2958 2956 2953 2950 2948 2945 2942 2939 2936 2933 2931 2928 2925 2923 2921 2919 2917 2915 2913 2912 2911 2910 2909 2908 2907 2907 2906 2905 2905 2905 2905 2906 2907 2908 2908 2909 2910 2910 2911 2911 2912 2912 2912 2912 2912 2911 2911 2911 2910 2909 2909 2909 2910 2911 2913 2914 2915 2915 2916 2916 2916 2916 2917 2917 2918 2919 2920 2920 2921 2922 2923 2925 2926 2928 2929 2930 2932 2933 2936 2938 2942 2944 2948 2951 2954 2956 2958 2961 2964 2966 2969 2972 2974 2978 2982 2986 2989 2992 2995 2998 3001